RADFXSAT (FOX-1B)

Last updated on Mon Sep 15 2025 00:03:09 GMT+0000 (Coordinated Universal Time)

1 43017U 17073E 25257.10235876 .00006241 00000+0 31211-3 0 9999 2 43017 97.5102 125.4569 0167586 196.7830 162.7813 15.06277037423735
UTC large
Height (km)
Speed (km/s)
/
Latitude / Longitude
Inclination (degrees)
Orbital Period (minutes)
Azimuth
Elevation
Range (km)
Doppler Factor

Next 0 passes for location: London (51.5072 / 0.1276)

Sorry there are no passes over London.